Burien, Washington, United States
Lat: 47.47N, Lon: 122.35W
Wx Zone: WAZ508
Local Info
Past Weather Observations for Today

NOTE: This archive is for the closest National Weather Service station to Burien. Information may differ from the station used for current weather conditions.

Click here for Long-term Archive

Time Weather Temperature Dewpoint Humidity Pressure Winds Precip Visibility
16:53
Partly Cloudy
77°F / 25°C 59°F / 15°C 54% 30.12 in
(1020 mb)
SSW 3.5 mph
(SSW 6 kph)
- 10SM
15:53
Partly Cloudy
75°F / 24°C 59°F / 15°C 57% 30.12 in
(1020 mb)
Calm - 10SM
14:53
Partly Cloudy
73°F / 23°C 61°F / 16°C 65% 30.15 in
(1021 mb)
SSW 3.5 mph
(SSW 6 kph)
- 10SM
13:53
Partly Cloudy
72°F / 22°C 59°F / 15°C 65% 30.15 in
(1021 mb)
Variable 3.5 mph
(Variable 6 kph)
- 10SM
12:53
Partly Cloudy
70°F / 21°C 57°F / 14°C 64% 30.18 in
(1022 mb)
Variable 4.6 mph
(Variable 7 kph)
- 10SM
12:32
Partly Cloudy
66°F / 19°C 57°F / 14°C 73% 30.18 in
(1022 mb)
W 8.1 mph
(W 13 kph)
- 10SM
11:53
Overcast
66°F / 19°C 57°F / 14°C 73% 30.18 in
(1022 mb)
SW 6.9 mph
(SW 11 kph)
- 10SM
11:24
Overcast
64°F / 18°C 57°F / 14°C 78% 30.18 in
(1022 mb)
SSE 6.9 mph
(SSE 11 kph)
- 10SM
10:53
Overcast
64°F / 18°C 57°F / 14°C 78% 30.18 in
(1022 mb)
SW 4.6 mph
(SW 7 kph)
- 10SM
10:06
Overcast
63°F / 17°C 57°F / 14°C 83% 30.18 in
(1022 mb)
SW 5.8 mph
(SW 9 kph)
- 10SM
09:53
Overcast
63°F / 17°C 57°F / 14°C 83% 30.18 in
(1022 mb)
Variable 4.6 mph
(Variable 7 kph)
- 10SM
09:44
Overcast
63°F / 17°C 57°F / 14°C 83% 30.18 in
(1022 mb)
Variable 5.8 mph
(Variable 9 kph)
- 10SM
08:53
Overcast
61°F / 16°C 57°F / 14°C 88% 30.18 in
(1022 mb)
Variable 5.8 mph
(Variable 9 kph)
- 10SM
07:53
Overcast
61°F / 16°C 57°F / 14°C 88% 30.18 in
(1022 mb)
SSW 6.9 mph
(SSW 11 kph)
- 10SM
06:53
Overcast
59°F / 15°C 57°F / 14°C 94% 30.18 in
(1022 mb)
SW 5.8 mph
(SW 9 kph)
- 10SM
05:53
Overcast
59°F / 15°C 57°F / 14°C 94% 30.15 in
(1021 mb)
SSW 4.6 mph
(SSW 7 kph)
- 10SM
05:05
Overcast
59°F / 15°C 57°F / 14°C 94% 30.15 in
(1021 mb)
SW 6.9 mph
(SW 11 kph)
- 10SM
04:53
Overcast
59°F / 15°C 57°F / 14°C 94% 30.15 in
(1021 mb)
SW 6.9 mph
(SW 11 kph)
- 8SM
04:38
Overcast
59°F / 15°C 57°F / 14°C 94% 30.15 in
(1021 mb)
SW 6.9 mph
(SW 11 kph)
- 8SM
03:53
Overcast
59°F / 15°C 57°F / 14°C 94% 30.15 in
(1021 mb)
SW 9.2 mph
(SW 15 kph)
- 10SM
03:08
Mostly Cloudy
59°F / 15°C 57°F / 14°C 94% 30.12 in
(1020 mb)
SSE 6.9 mph
(SSE 11 kph)
- 10SM
02:53
Mostly Cloudy
59°F / 15°C 57°F / 14°C 94% 30.12 in
(1020 mb)
SW 5.8 mph
(SW 9 kph)
- 10SM
01:53
Mostly Cloudy
61°F / 16°C 57°F / 14°C 88% 30.12 in
(1020 mb)
SSW 3.5 mph
(SSW 6 kph)
- 10SM
00:53
Partly Cloudy
61°F / 16°C 59°F / 15°C 94% 30.12 in
(1020 mb)
SW 5.8 mph
(SW 9 kph)
- 10SM
Time Weather Temperature Dewpoint Humidity Pressure Winds Precip Visibility


Weather for websites

WeatherForYou.com, LLC is not responsible for any damages or problems caused by this service. Current weather conditions are obtained from the closest station including government and personal stations which may have varying degrees of accuracy. Weather forecasts are derived from the NOAA NDFD. Like all things, this site belongs to Jesus Christ... He just trusts us to maintain it. If you have any questions or comments email webmaster@weatherforyou.com

Copyright © 2016, WeatherForYou.com LLC. All rights reserved.